Terminal Aerodrome Forecast
Issued by NWS

Home | Current Version | Previous Version | Text Only | Print | Product List | Glossary On
Versions: 1 2 3 4 5 6 7 8 9 10 11 12 13
354
FTPA31 PHFO 110523
TAFHKO
TAF
PHKO 110523Z 1106/1206 29007KT P6SM SKC
     FM110900 08006KT P6SM SKC
     FM112000 24008KT P6SM BKN060
      AMD NOT SKED=

USA.gov is the U.S. government's official web portal to all federal, state and local government web resources and services.